Location: Slemon Park
(46.4340°N, 63.8219°W)
Time: 17:50:52
(UTC-03:00)

Daily predictions for brighter satellites

Satellite Brightness Start Highest point End
(mag) Time Altitude Azimuth Time Altitude Azimuth Time Altitude Azimuth
In-Cosmos 22 4.2 19:57:44 10° N 20:02:58 53° ENE 20:08:06 10° SSE
Cosmos 1818 3.7 20:01:50 10° NNW 20:07:15 61° NE 20:12:37 10° SE
Cosmos 1844 Rocket 3.1 20:03:44 10° SW 20:09:22 70° WNW 20:15:01 10° NNE
CZ-2D R/B 3.9 20:06:07 10° SE 20:09:42 37° ENE 20:13:19 10° N
Cosmos 1805 3.9 20:10:28 10° SSE 20:13:59 33° E 20:17:32 10° NNE
Cosmos 1378 3.9 20:10:51 10° NNW 20:14:34 57° W 20:18:14 10° S
ALOS 2.4 20:11:12 10° SSE 20:15:53 86° WSW 20:20:36 10° NNW
COSMOS 2487 3.5 20:12:50 10° N 20:16:00 28° ENE 20:19:07 10° ESE
Meteor 1-22 Rocket 4.4 20:10:24 10° S 20:16:15 78° E 20:22:21 10° NNE
Cosmos 1833 Rocket 3.2 20:12:44 10° NNW 20:18:06 43° NE 20:23:25 10° SE
Resurs 1-3 3.7 20:15:04 10° SSE 20:19:22 59° ENE 20:23:42 10° N
Cosmos 1437 Rocket 3.6 20:18:32 10° SSW 20:22:31 57° WNW 20:26:34 10° N
FENGYUN 3A 3.8 20:17:07 10° SSE 20:22:32 81° WSW 20:27:58 10° NNW
Cosmos 1408 Rocket 4.3 20:21:40 10° N 20:25:46 34° ENE 20:29:51 10° SE
Meteor 1-4 Rocket 3.1 20:23:09 10° SSE 20:26:18 32° E 20:29:28 10° NNE
Cosmos 2278 Rocket 2.2 20:20:44 10° SSW 20:26:23 73° ESE 20:32:04 10° NNE
Cosmos 1470 4.1 20:27:03 10° SE 20:30:02 21° E 20:33:02 10° NE
USA 215 4.2 20:25:43 10° ENE 20:30:45 23° SE 20:35:45 10° S
SJ-6B 4.2 20:29:23 10° SSW 20:32:53 39° W 20:36:26 10° NNW
Cosmos 1340 Rocket 3.9 20:30:43 10° NNE 20:34:08 26° ENE 20:36:28 16° ESE
Cosmos 1544 3.1 20:31:00 10° S 20:34:34 57° E 20:38:11 10° NNE
ATLAS 5 CENTAUR R/B 2.8 20:34:06 10° SSE 20:37:48 23° ESE 20:41:46 10° ENE
Cosmos 158 Rocket 4.1 20:32:54 10° NNW 20:37:55 54° ENE 20:42:53 11° SE
Cosmos 1934 Rocket 4.2 20:32:26 10° SSW 20:38:33 75° W 20:44:39 10° N
Cosmos 1733 4.3 20:36:15 10° SE 20:39:23 24° E 20:42:32 10° NE
CZ-4B DEB 3.4 20:39:31 17° SE 20:41:23 34° ENE 20:44:15 10° N
Okean 3 Rocket 3.7 20:37:07 10° N 20:41:31 80° W 20:45:55 10° S
Cosmos 2297 3.9 20:36:50 10° S 20:42:15 47° ESE 20:47:45 10° NE
Cosmos 1867 3.9 20:40:27 10° S 20:45:35 44° ESE 20:50:47 10° NE
ISS -1.5 20:45:13 10° SSE 20:45:41 11° SSE 20:45:41 11° SSE
H-2A R/B 3.6 20:44:48 10° S 20:48:37 55° W 20:52:31 10° NNW
Spot 2 Rocket 3.9 20:44:06 10° S 20:49:11 68° WSW 20:54:19 10° NNW
Cosmos 2082 Rocket 2.2 20:48:13 10° NNW 20:53:58 84° ENE 20:59:16 12° SSE
Abrixas 3.9 20:51:54 10° W 20:54:23 27° SSW 20:55:43 18° SSE
Helios 1B rocket 2.5 20:51:05 10° NNE 20:55:09 52° E 20:59:10 10° S
Cosmos 1076 Rocket 3.5 20:51:07 10° N 20:55:24 86° W 20:59:39 10° S
Cosmos 1758 3.3 20:54:11 10° S 20:58:10 88° W 21:02:12 10° N
Lacrosse 5 2.1 20:54:30 10° WSW 20:59:34 71° NW 21:04:39 10° NE
SL-14 R/B 4.4 20:59:07 10° NNE 21:02:20 25° ENE 21:02:34 24° ENE
USA 267 4.0 21:00:49 16° E 21:05:42 44° NNE 21:11:49 10° NW
Cosmos 1953 2.4 21:02:06 10° SSW 21:06:10 79° W 21:10:15 10° N
Lacrosse 4 Rocket 4.1 21:03:58 10° W 21:07:00 20° NW 21:10:04 10° N
Envisat 2.9 21:02:47 14° SSE 21:07:13 70° ENE 21:12:17 10° N
SPOT 5 4.3 21:05:47 22° E 21:07:20 25° ENE 21:11:36 10° N
Cosmos 2016 Rocket 4.4 21:02:35 10° SSE 21:08:17 39° E 21:13:57 10° NNE
GP-B 3.0 21:04:58 10° S 21:09:24 85° E 21:13:53 10° N
USA 186 2.3 21:08:21 20° SSW 21:09:32 36° W 21:11:38 10° NNW
Cosmos 1766 Rocket 3.6 21:06:18 10° N 21:10:49 83° W 21:15:17 10° S
Helios 1A 3.2 21:07:12 10° S 21:11:21 69° WSW 21:15:33 10° NNW
ARGOS 4.3 21:10:02 22° E 21:11:22 25° ENE 21:15:37 10° N
Cosmos 1939 Rocket 2.9 21:09:38 25° SSE 21:11:54 64° ENE 21:16:02 10° N
H-2A R/B 3.8 21:12:14 16° ENE 21:12:59 17° ENE 21:16:16 10° NNE
CZ-3 Stage 3 4.3 20:40:25 10° WSW 21:14:50 39° SSW 21:20:20 20° SE
Resurs 01 Rocket 3.4 21:11:22 10° SSW 21:15:20 32° W 21:19:21 10° NNW
Cosmos 1271 Rocket 2.7 21:11:27 10° S 21:15:26 63° E 21:19:26 10° NNE
Cosmos 1125 Rocket 3.5 21:11:22 10° SSW 21:16:34 83° WNW 21:21:50 10° NNE
Cosmos 1048 Rocket 4.4 21:12:18 10° NNW 21:17:22 61° WSW 21:22:08 11° S
Geosat 3.9 21:12:57 10° NNE 21:18:01 90° NW 21:23:03 10° SSW
Cosmos 1184 Rocket 3.2 21:18:37 10° N 21:21:45 47° ENE 21:21:45 47° ENE
Cosmos 2100 Rocket 3.9 21:17:48 10° S 21:24:07 77° E 21:30:31 10° N
Cosmos-2242 2.9 21:19:54 10° S 21:24:09 87° E 21:28:27 10° N
ERS-1 Rocket 3.0 21:23:22 33° SE 21:25:25 57° ENE 21:30:22 10° N
Terra 4.0 21:25:53 11° NE 21:25:53 11° NE 21:27:03 10° NE
Lacrosse 5 rocket 1.0 21:21:57 10° NW 21:25:55 85° SW 21:26:41 55° SE
Cosmos 1674 3.5 21:25:16 10° NNW 21:28:55 49° W 21:31:53 15° SSW
Fregat R/B Cluster 11 4.1 21:24:02 10° SW 21:29:08 79° NW 21:32:29 10° NE
Tsikada Rocket 4.3 21:24:43 10° N 21:30:39 45° ENE 21:32:36 35° ESE
SJ-11-01 4.4 21:27:38 20° S 21:30:53 77° WSW 21:35:38 10° NNW
YAOGAN 6 2.6 21:36:25 66° ENE 21:36:26 66° ENE 21:40:09 10° N
Cosmos 1743 Rocket 3.6 21:37:52 10° N 21:42:19 81° W 21:43:51 41° S
Cosmos 1500 Rocket 3.4 21:39:46 10° N 21:44:06 78° E 21:44:37 66° SE
Meteor 1-29 4.0 21:40:51 10° N 21:44:12 46° WNW 21:47:33 10° SW
H-2A R/B 4.0 21:46:29 16° NE 21:46:29 16° NE 21:47:59 10° NNE
Cosmos 1802 Rocket 3.9 21:39:10 10° S 21:45:17 87° E 21:51:31 10° N
BREEZE-M DEB (TANK) 3.0 21:43:01 10° WNW 21:44:40 46° WNW 21:44:40 46° WNW
Cosmos 1356 Rocket 3.2 21:43:43 10° N 21:47:52 81° E 21:47:56 81° E
Cosmos 2369 Rocket 4.3 21:53:11 11° NE 21:53:11 11° NE 21:53:28 10° NE
CZ-3B DEB 3.1 21:41:44 10° W 21:49:52 46° NNW 21:52:40 20° NE
Cosmos 2251 Rocket 3.4 21:47:03 10° NNW 21:52:25 86° ENE 21:53:40 54° SSE
SPOT 1/Viking Rocket 4.0 21:56:26 43° ENE 21:56:26 43° ENE 22:01:16 10° N
Cosmos 2061 Rocket 4.3 21:52:29 10° SSW 21:58:52 71° W 22:05:20 10° N
Cosmos 1626 4.0 21:58:00 10° N 21:59:35 21° NNE 21:59:35 21° NNE
Cosmos 1833 Rocket 4.1 21:56:55 10° NW 22:01:54 33° WSW 22:05:39 16° SSW
MetOp-B 4.0 22:03:35 64° SE 22:04:25 82° ENE 22:09:48 10° NNW
Cosmos 1816 Rocket 4.4 21:58:41 10° N 22:04:51 67° E 22:05:52 58° SE
Cosmos 1470 4.5 22:02:19 10° SW 22:05:56 33° WNW 22:09:34 10° N
NOAA 11 4.1 22:07:14 65° SSE 22:08:06 85° ENE 22:13:39 10° NNW
USA 215 3.1 22:07:52 10° NE 22:14:25 79° SE 22:20:58 10° SW
Cosmos 2058 3.6 22:14:27 10° NNW 22:17:39 51° NNW 22:17:39 51° NNW
Cosmos 1842 Rocket 4.1 22:18:20 52° WSW 22:18:47 55° WNW 22:23:08 10° N
MOS 1-B Rocket 4.5 22:17:32 53° ESE 22:19:15 66° ENE 22:26:05 10° N
ATLAS 5 CENTAUR R/B 2.4 22:17:19 10° SW 22:22:02 56° NW 22:27:14 10° NE
Cosmos 2233 Rocket 4.0 22:23:21 61° ENE 22:23:21 61° ENE 22:28:58 10° NNE
Cosmos 2151 3.7 22:19:33 10° NNW 22:23:15 51° WNW 22:23:15 51° WNW
USA 245 4.2 22:24:27 76° S 22:24:57 87° WSW 22:31:16 10° NNW
Lacrosse 5 3.6 22:38:53 10° WNW 22:43:16 28° NNW 22:45:24 21° NNE
SPOT 5 3.6 22:45:02 54° W 22:45:02 54° W 22:50:17 10° NNW
USA 267 3.1 22:48:09 85° SE 22:48:22 90° SW 22:54:57 10° NW
ARGOS 3.7 22:51:33 54° W 22:51:33 54° W 22:56:32 10° NNW
H-2A R/B 2.6 22:52:51 58° NNW 22:52:51 58° NNW 22:57:06 10° NNW
Terra 3.4 23:04:46 31° N 23:04:46 31° N 23:07:17 10° N
Cosmos 2297 Rocket 4.4 23:15:35 10° N 23:18:30 15° NE 23:18:30 15° NE
Cosmos 2369 Rocket 3.6 23:34:54 32° N 23:34:54 32° N 23:38:04 10° NNE
Cosmos 2227 Rocket 4.1 23:40:38 10° N 23:43:38 22° NNE 23:43:38 22° NNE
